Location: Unspecified
(0.0000°N, 0.0000°E)
Time: 18:39:23
(UTC+00:00)

deb Delta 126 - Pass Details

Date: 14 February 2026
Orbit: 1501 x 1634 km, 102.6° (Epoch: 11 March)

Event Time Altitude Azimuth Distance (km) Brightness Sun altitude
Rises 03:48:05 0° 23° (NNE) 4,804 ? -35.4°
Reaches altitude 10° 03:51:01 10° 25° (NNE) 3,807 ? -34.7°
Maximum altitude 03:59:55 68° 107° (ESE) 1,668 ? -32.6°
Drops below altitude 10° 04:08:35 10° 188° (S) 3,720 ? -30.5°
Sets 04:11:25 0° 190° (S) 4,689 ? -29.8°
